Time,TemperatureF,DewpointF,PressureIn,WindDirection,WindDirectionDegrees,WindSpeedMPH,WindSpeedGustMPH,Humidity,HourlyPrecipIn,Conditions,Clouds,dailyrainin,SoftwareType,DateUTC
2013-12-20 00:00:00,37.6,35.0,29.55,ENE,67,1.0,1.0,89,0.00,,,0.00,Rainwise IP-100,2013-12-20 05:00:00,
2013-12-20 00:01:00,37.6,35.0,29.55,ENE,67,1.0,1.0,89,0.00,,,0.00,Rainwise IP-100,2013-12-20 05:01:00,
2013-12-20 00:06:00,37.6,35.0,29.55,ENE,67,2.0,2.0,89,0.00,,,0.00,Rainwise IP-100,2013-12-20 05:06:00,
2013-12-20 00:11:00,37.5,35.0,29.55,ENE,67,2.0,2.0,89,0.00,,,0.00,Rainwise IP-100,2013-12-20 05:11:00,
2013-12-20 00:16:00,37.4,33.0,29.55,ENE,67,0.0,2.0,88,0.00,,,0.00,Rainwise IP-100,2013-12-20 05:16:00,
2013-12-20 00:21:00,37.4,33.0,29.56,NE,45,0.0,0.0,87,0.00,,,0.00,Rainwise IP-100,2013-12-20 05:21:00,
2013-12-20 00:26:00,37.5,35.0,29.55,NE,45,0.0,1.0,88,0.00,,,0.00,Rainwise IP-100,2013-12-20 05:26:00,
2013-12-20 00:31:00,37.5,35.0,29.56,NNW,337,0.0,1.0,89,0.00,,,0.00,Rainwise IP-100,2013-12-20 05:31:00,
2013-12-20 00:36:00,37.4,33.0,29.55,NNW,337,0.0,1.0,88,0.00,,,0.00,Rainwise IP-100,2013-12-20 05:36:00,
2013-12-20 00:41:00,37.4,35.0,29.55,NNW,337,0.0,0.0,89,0.00,,,0.00,Rainwise IP-100,2013-12-20 05:41:00,
2013-12-20 00:46:00,37.5,35.0,29.55,SE,135,0.0,2.0,89,0.00,,,0.00,Rainwise IP-100,2013-12-20 05:46:00,
2013-12-20 00:50:00,37.4,35.0,29.55,East,90,0.0,1.0,89,0.00,,,0.00,Rainwise IP-100,2013-12-20 05:50:00,
2013-12-20 00:51:00,37.4,35.0,29.55,East,90,0.0,0.0,89,0.00,,,0.00,Rainwise IP-100,2013-12-20 05:51:00,
2013-12-20 00:56:00,37.5,36.0,29.54,East,90,2.0,2.0,90,0.00,,,0.00,Rainwise IP-100,2013-12-20 05:56:00,
2013-12-20 01:00:00,37.5,35.0,29.54,East,90,0.0,2.0,89,0.00,,,0.00,Rainwise IP-100,2013-12-20 06:00:00,
2013-12-20 01:05:00,37.4,35.0,29.54,East,90,0.0,0.0,89,0.00,,,0.00,Rainwise IP-100,2013-12-20 06:05:00,
2013-12-20 01:10:00,37.2,35.0,29.54,NE,45,0.0,0.0,89,0.00,,,0.00,Rainwise IP-100,2013-12-20 06:10:00,
2013-12-20 01:15:00,36.9,35.0,29.54,NE,45,0.0,0.0,89,0.00,,,0.00,Rainwise IP-100,2013-12-20 06:15:00,
2013-12-20 01:20:00,36.9,35.0,29.54,NE,45,0.0,1.0,91,0.00,,,0.00,Rainwise IP-100,2013-12-20 06:20:00,
2013-12-20 01:25:00,36.9,35.0,29.53,NE,45,0.0,1.0,90,0.00,,,0.00,Rainwise IP-100,2013-12-20 06:25:00,
2013-12-20 01:30:00,36.9,35.0,29.53,NE,45,1.0,1.0,92,0.00,,,0.00,Rainwise IP-100,2013-12-20 06:30:00,
2013-12-20 01:35:00,36.8,35.0,29.53,NE,45,0.0,1.0,91,0.00,,,0.00,Rainwise IP-100,2013-12-20 06:35:00,
2013-12-20 01:40:00,36.9,35.0,29.53,North,360,0.0,0.0,91,0.00,,,0.00,Rainwise IP-100,2013-12-20 06:40:00,
2013-12-20 01:45:00,36.9,35.0,29.53,North,360,0.0,0.0,91,0.00,,,0.00,Rainwise IP-100,2013-12-20 06:45:00,
2013-12-20 01:50:00,36.9,35.0,29.53,North,360,0.0,0.0,92,0.00,,,0.00,Rainwise IP-100,2013-12-20 06:50:00,
2013-12-20 01:55:00,36.8,35.0,29.53,North,360,0.0,0.0,92,0.00,,,0.00,Rainwise IP-100,2013-12-20 06:55:00,
2013-12-20 02:00:00,36.8,35.0,29.52,North,360,0.0,0.0,92,0.00,,,0.00,Rainwise IP-100,2013-12-20 07:00:00,
2013-12-20 02:03:00,36.9,35.0,29.52,North,360,0.0,0.0,91,0.00,,,0.00,Rainwise IP-100,2013-12-20 07:03:00,
2013-12-20 02:08:00,36.9,35.0,29.52,North,360,0.0,0.0,92,0.00,,,0.00,Rainwise IP-100,2013-12-20 07:08:00,
2013-12-20 02:13:00,36.8,35.0,29.52,North,360,0.0,0.0,92,0.00,,,0.00,Rainwise IP-100,2013-12-20 07:13:00,
2013-12-20 02:18:00,36.8,35.0,29.52,North,360,0.0,0.0,92,0.00,,,0.00,Rainwise IP-100,2013-12-20 07:18:00,
2013-12-20 02:23:00,36.7,35.0,29.52,North,360,0.0,0.0,92,0.00,,,0.00,Rainwise IP-100,2013-12-20 07:23:00,
2013-12-20 02:28:00,36.7,35.0,29.52,North,360,0.0,0.0,92,0.00,,,0.00,Rainwise IP-100,2013-12-20 07:28:00,
2013-12-20 02:33:00,36.7,35.0,29.52,North,360,0.0,0.0,93,0.00,,,0.00,Rainwise IP-100,2013-12-20 07:33:00,
2013-12-20 02:38:00,36.7,35.0,29.52,North,360,0.0,0.0,93,0.00,,,0.00,Rainwise IP-100,2013-12-20 07:38:00,
2013-12-20 02:43:00,36.7,35.0,29.52,North,360,0.0,0.0,93,0.00,,,0.00,Rainwise IP-100,2013-12-20 07:43:00,
2013-12-20 02:48:00,36.7,35.0,29.52,North,360,0.0,0.0,93,0.00,,,0.00,Rainwise IP-100,2013-12-20 07:48:00,
2013-12-20 02:53:00,36.8,35.0,29.52,North,360,0.0,0.0,93,0.00,,,0.00,Rainwise IP-100,2013-12-20 07:53:00,
2013-12-20 02:58:00,36.8,35.0,29.52,North,360,0.0,0.0,93,0.00,,,0.00,Rainwise IP-100,2013-12-20 07:58:00,
2013-12-20 03:03:00,36.9,35.0,29.52,North,360,0.0,0.0,93,0.00,,,0.00,Rainwise IP-100,2013-12-20 08:03:00,
2013-12-20 03:08:00,36.9,35.0,29.52,North,360,0.0,1.0,93,0.00,,,0.00,Rainwise IP-100,2013-12-20 08:08:00,
2013-12-20 03:13:00,36.8,35.0,29.53,North,360,0.0,0.0,93,0.00,,,0.00,Rainwise IP-100,2013-12-20 08:13:00,
2013-12-20 03:18:00,36.9,35.0,29.52,North,360,0.0,0.0,93,0.00,,,0.00,Rainwise IP-100,2013-12-20 08:18:00,
2013-12-20 03:23:00,36.9,35.0,29.53,North,360,0.0,0.0,93,0.00,,,0.00,Rainwise IP-100,2013-12-20 08:23:00,
2013-12-20 03:28:00,37.1,35.0,29.53,North,360,0.0,0.0,92,0.00,,,0.00,Rainwise IP-100,2013-12-20 08:28:00,
2013-12-20 03:33:00,37.1,35.0,29.53,North,360,0.0,1.0,93,0.00,,,0.00,Rainwise IP-100,2013-12-20 08:33:00,
2013-12-20 03:38:00,36.9,36.0,29.53,North,360,0.0,0.0,94,0.00,,,0.00,Rainwise IP-100,2013-12-20 08:38:00,
2013-12-20 03:43:00,36.8,35.0,29.53,North,360,0.0,0.0,93,0.00,,,0.00,Rainwise IP-100,2013-12-20 08:43:00,
2013-12-20 03:48:00,36.9,36.0,29.53,North,360,0.0,0.0,94,0.00,,,0.00,Rainwise IP-100,2013-12-20 08:48:00,
2013-12-20 03:53:00,37.1,35.0,29.53,ESE,112,0.0,2.0,93,0.00,,,0.00,Rainwise IP-100,2013-12-20 08:53:00,
2013-12-20 03:58:00,37.1,35.0,29.53,ESE,112,0.0,1.0,93,0.00,,,0.00,Rainwise IP-100,2013-12-20 08:58:00,
2013-12-20 04:03:00,37.0,36.0,29.53,East,90,0.0,0.0,94,0.00,,,0.00,Rainwise IP-100,2013-12-20 09:03:00,
2013-12-20 04:08:00,36.9,36.0,29.53,East,90,0.0,0.0,94,0.00,,,0.00,Rainwise IP-100,2013-12-20 09:08:00,
2013-12-20 04:13:00,36.8,35.0,29.53,East,90,0.0,0.0,93,0.00,,,0.00,Rainwise IP-100,2013-12-20 09:13:00,
2013-12-20 04:18:00,36.7,35.0,29.53,East,90,0.0,0.0,93,0.00,,,0.00,Rainwise IP-100,2013-12-20 09:18:00,
2013-12-20 04:23:00,36.7,35.0,29.53,East,90,0.0,0.0,93,0.00,,,0.00,Rainwise IP-100,2013-12-20 09:23:00,
2013-12-20 04:28:00,36.9,36.0,29.53,NE,45,0.0,0.0,94,0.00,,,0.00,Rainwise IP-100,2013-12-20 09:28:00,
2013-12-20 04:33:00,37.3,35.0,29.53,NE,45,0.0,0.0,93,0.00,,,0.00,Rainwise IP-100,2013-12-20 09:33:00,
2013-12-20 04:38:00,37.6,37.0,29.54,NE,45,0.0,0.0,94,0.00,,,0.00,Rainwise IP-100,2013-12-20 09:38:00,
2013-12-20 04:43:00,37.9,36.0,29.54,NE,45,0.0,0.0,93,0.00,,,0.00,Rainwise IP-100,2013-12-20 09:43:00,
2013-12-20 04:48:00,38.3,36.0,29.54,NE,45,0.0,0.0,93,0.00,,,0.00,Rainwise IP-100,2013-12-20 09:48:00,
2013-12-20 04:53:00,38.7,37.0,29.54,NE,45,0.0,0.0,93,0.00,,,0.00,Rainwise IP-100,2013-12-20 09:53:00,
2013-12-20 04:58:00,39.0,37.0,29.54,NE,45,0.0,0.0,93,0.00,,,0.00,Rainwise IP-100,2013-12-20 09:58:00,
2013-12-20 05:03:00,39.4,37.0,29.54,NE,45,2.0,2.0,91,0.00,,,0.00,Rainwise IP-100,2013-12-20 10:03:00,
2013-12-20 05:08:00,39.6,38.0,29.54,NE,45,0.0,2.0,91,0.00,,,0.00,Rainwise IP-100,2013-12-20 10:08:00,
2013-12-20 05:13:00,39.8,37.0,29.54,NE,45,0.0,0.0,89,0.00,,,0.00,Rainwise IP-100,2013-12-20 10:13:00,
2013-12-20 05:18:00,39.9,38.0,29.54,NE,45,0.0,0.0,91,0.00,,,0.00,Rainwise IP-100,2013-12-20 10:18:00,
2013-12-20 05:23:00,40.4,38.0,29.54,NE,45,0.0,0.0,91,0.00,,,0.00,Rainwise IP-100,2013-12-20 10:23:00,
2013-12-20 05:28:00,40.8,38.0,29.54,NE,45,0.0,1.0,89,0.00,,,0.00,Rainwise IP-100,2013-12-20 10:28:00,
2013-12-20 05:33:00,41.0,38.0,29.55,NE,45,0.0,0.0,90,0.00,,,0.00,Rainwise IP-100,2013-12-20 10:33:00,
2013-12-20 05:38:00,41.2,38.0,29.54,NE,45,0.0,0.0,90,0.00,,,0.00,Rainwise IP-100,2013-12-20 10:38:00,
2013-12-20 05:43:00,41.3,38.0,29.54,NE,45,0.0,0.0,90,0.00,,,0.00,Rainwise IP-100,2013-12-20 10:43:00,
2013-12-20 05:48:00,41.3,38.0,29.54,NE,45,0.0,0.0,90,0.00,,,0.00,Rainwise IP-100,2013-12-20 10:48:00,
2013-12-20 05:53:00,41.3,39.0,29.55,NE,45,0.0,1.0,91,0.00,,,0.00,Rainwise IP-100,2013-12-20 10:53:00,
2013-12-20 05:58:00,41.4,39.0,29.55,NE,45,0.0,0.0,91,0.00,,,0.00,Rainwise IP-100,2013-12-20 10:58:00,
2013-12-20 06:03:00,41.5,40.0,29.54,NE,45,0.0,0.0,91,0.00,,,0.00,Rainwise IP-100,2013-12-20 11:03:00,
2013-12-20 06:08:00,41.6,40.0,29.54,NE,45,0.0,0.0,91,0.00,,,0.00,Rainwise IP-100,2013-12-20 11:08:00,
2013-12-20 06:13:00,41.6,39.0,29.54,NE,45,0.0,2.0,90,0.00,,,0.00,Rainwise IP-100,2013-12-20 11:13:00,
2013-12-20 06:18:00,41.7,39.0,29.54,NE,45,1.0,2.0,90,0.00,,,0.00,Rainwise IP-100,2013-12-20 11:18:00,
2013-12-20 06:23:00,41.4,38.0,29.54,NE,45,1.0,2.0,90,0.00,,,0.00,Rainwise IP-100,2013-12-20 11:23:00,
2013-12-20 06:28:00,41.2,38.0,29.54,NE,45,0.0,2.0,90,0.00,,,0.00,Rainwise IP-100,2013-12-20 11:28:00,
2013-12-20 06:33:00,40.8,39.0,29.54,NNE,22,0.0,0.0,91,0.00,,,0.00,Rainwise IP-100,2013-12-20 11:33:00,
2013-12-20 06:38:00,40.7,39.0,29.55,NNE,22,0.0,0.0,93,0.00,,,0.00,Rainwise IP-100,2013-12-20 11:38:00,
2013-12-20 06:43:00,40.6,39.0,29.55,NNE,22,0.0,0.0,92,0.00,,,0.00,Rainwise IP-100,2013-12-20 11:43:00,
2013-12-20 06:48:00,40.7,39.0,29.55,NNE,22,0.0,0.0,92,0.00,,,0.00,Rainwise IP-100,2013-12-20 11:48:00,
2013-12-20 06:53:00,40.9,39.0,29.55,NNE,22,0.0,0.0,92,0.00,,,0.00,Rainwise IP-100,2013-12-20 11:53:00,
2013-12-20 06:58:00,41.4,39.0,29.56,NNE,22,1.0,1.0,92,0.00,,,0.00,Rainwise IP-100,2013-12-20 11:58:00,
2013-12-20 07:03:00,41.6,40.0,29.56,NNE,22,0.0,1.0,92,0.00,,,0.00,Rainwise IP-100,2013-12-20 12:03:00,
2013-12-20 07:08:00,41.8,40.0,29.56,NNE,22,0.0,0.0,91,0.00,,,0.00,Rainwise IP-100,2013-12-20 12:08:00,
2013-12-20 07:13:00,42.0,40.0,29.56,NNE,22,0.0,0.0,91,0.00,,,0.00,Rainwise IP-100,2013-12-20 12:13:00,
2013-12-20 07:18:00,42.2,39.0,29.56,NNE,22,0.0,0.0,90,0.00,,,0.00,Rainwise IP-100,2013-12-20 12:18:00,
2013-12-20 07:23:00,42.4,39.0,29.56,NNE,22,0.0,0.0,90,0.00,,,0.00,Rainwise IP-100,2013-12-20 12:23:00,
2013-12-20 07:28:00,42.7,40.0,29.56,NNE,22,0.0,0.0,89,0.00,,,0.00,Rainwise IP-100,2013-12-20 12:28:00,
2013-12-20 07:33:00,42.9,40.0,29.56,NNE,22,0.0,0.0,89,0.00,,,0.00,Rainwise IP-100,2013-12-20 12:33:00,
2013-12-20 07:38:00,43.3,40.0,29.56,NNE,22,0.0,0.0,90,0.00,,,0.00,Rainwise IP-100,2013-12-20 12:38:00,
2013-12-20 07:43:00,43.4,40.0,29.56,NNE,22,0.0,0.0,89,0.00,,,0.00,Rainwise IP-100,2013-12-20 12:43:00,
2013-12-20 07:48:00,43.4,40.0,29.56,NNE,22,0.0,0.0,89,0.00,,,0.00,Rainwise IP-100,2013-12-20 12:48:00,
2013-12-20 07:53:00,43.2,40.0,29.56,NNE,22,0.0,0.0,89,0.00,,,0.00,Rainwise IP-100,2013-12-20 12:53:00,
2013-12-20 07:58:00,43.0,40.0,29.56,NNE,22,0.0,0.0,90,0.00,,,0.00,Rainwise IP-100,2013-12-20 12:58:00,
2013-12-20 08:03:00,42.9,40.0,29.57,North,360,0.0,0.0,90,0.00,,,0.00,Rainwise IP-100,2013-12-20 13:03:00,
2013-12-20 08:08:00,42.9,40.0,29.57,North,360,0.0,0.0,90,0.00,,,0.00,Rainwise IP-100,2013-12-20 13:08:00,
2013-12-20 08:13:00,42.9,40.0,29.57,North,360,0.0,0.0,90,0.00,,,0.00,Rainwise IP-100,2013-12-20 13:13:00,
2013-12-20 08:18:00,43.2,40.0,29.57,North,360,0.0,1.0,90,0.00,,,0.00,Rainwise IP-100,2013-12-20 13:18:00,
2013-12-20 08:23:00,43.5,41.0,29.57,North,360,0.0,0.0,89,0.00,,,0.00,Rainwise IP-100,2013-12-20 13:23:00,
2013-12-20 08:28:00,43.7,41.0,29.57,North,360,0.0,1.0,89,0.00,,,0.00,Rainwise IP-100,2013-12-20 13:28:00,
2013-12-20 08:33:00,43.9,41.0,29.58,North,360,0.0,1.0,89,0.00,,,0.00,Rainwise IP-100,2013-12-20 13:33:00,
2013-12-20 08:38:00,44.3,41.0,29.58,North,360,2.0,2.0,88,0.00,,,0.00,Rainwise IP-100,2013-12-20 13:38:00,
2013-12-20 08:43:00,44.6,41.0,29.58,North,360,0.0,2.0,87,0.00,,,0.00,Rainwise IP-100,2013-12-20 13:43:00,
2013-12-20 08:48:00,44.9,41.0,29.58,North,360,0.0,1.0,86,0.00,,,0.00,Rainwise IP-100,2013-12-20 13:48:00,
2013-12-20 08:53:00,45.4,41.0,29.58,North,360,0.0,2.0,86,0.00,,,0.00,Rainwise IP-100,2013-12-20 13:53:00,
2013-12-20 08:58:00,45.7,42.0,29.57,NE,45,1.0,1.0,86,0.00,,,0.00,Rainwise IP-100,2013-12-20 13:58:00,
2013-12-20 09:03:00,45.9,41.0,29.58,NE,45,0.0,2.0,85,0.00,,,0.00,Rainwise IP-100,2013-12-20 14:03:00,
2013-12-20 09:08:00,46.4,41.0,29.58,NE,45,0.0,0.0,85,0.00,,,0.00,Rainwise IP-100,2013-12-20 14:08:00,
2013-12-20 09:13:00,47.1,42.0,29.58,NE,45,1.0,2.0,83,0.00,,,0.00,Rainwise IP-100,2013-12-20 14:13:00,
2013-12-20 09:18:00,48.3,42.0,29.58,NE,45,0.0,2.0,80,0.00,,,0.00,Rainwise IP-100,2013-12-20 14:18:00,
2013-12-20 09:23:00,49.6,43.0,29.58,NE,45,1.0,2.0,78,0.00,,,0.00,Rainwise IP-100,2013-12-20 14:23:00,
2013-12-20 09:28:00,50.3,43.0,29.58,NE,45,1.0,2.0,77,0.00,,,0.00,Rainwise IP-100,2013-12-20 14:28:00,
2013-12-20 09:33:00,50.7,43.0,29.59,NE,45,1.0,2.0,77,0.00,,,0.00,Rainwise IP-100,2013-12-20 14:33:00,
2013-12-20 09:38:00,51.6,45.0,29.59,NE,45,1.0,2.0,76,0.00,,,0.00,Rainwise IP-100,2013-12-20 14:38:00,
2013-12-20 09:43:00,52.2,45.0,29.59,NE,45,1.0,2.0,77,0.00,,,0.00,Rainwise IP-100,2013-12-20 14:43:00,
2013-12-20 09:48:00,52.7,45.0,29.59,NE,45,0.0,2.0,76,0.00,,,0.00,Rainwise IP-100,2013-12-20 14:48:00,
2013-12-20 09:53:00,53.0,46.0,29.59,NE,45,0.0,1.0,77,0.00,,,0.00,Rainwise IP-100,2013-12-20 14:53:00,
2013-12-20 09:58:00,53.4,47.0,29.59,NE,45,0.0,1.0,77,0.00,,,0.00,Rainwise IP-100,2013-12-20 14:58:00,
2013-12-20 10:03:00,53.9,47.0,29.59,NE,45,0.0,1.0,79,0.00,,,0.00,Rainwise IP-100,2013-12-20 15:03:00,
2013-12-20 10:08:00,54.2,49.0,29.59,WSW,247,4.0,4.0,83,0.00,,,0.00,Rainwise IP-100,2013-12-20 15:08:00,
2013-12-20 10:13:00,54.5,50.0,29.59,SSW,202,3.0,4.0,83,0.00,,,0.00,Rainwise IP-100,2013-12-20 15:13:00,
2013-12-20 10:18:00,55.0,50.0,29.60,SW,225,2.0,4.0,82,0.00,,,0.00,Rainwise IP-100,2013-12-20 15:18:00,
2013-12-20 10:23:00,55.6,50.0,29.59,WSW,247,4.0,6.0,83,0.00,,,0.00,Rainwise IP-100,2013-12-20 15:23:00,
2013-12-20 10:28:00,56.2,50.0,29.59,NW,315,1.0,6.0,83,0.00,,,0.00,Rainwise IP-100,2013-12-20 15:28:00,
2013-12-20 10:33:00,56.8,51.0,29.59,SW,225,2.0,5.0,83,0.00,,,0.00,Rainwise IP-100,2013-12-20 15:33:00,
2013-12-20 10:38:00,56.9,52.0,29.60,WNW,292,2.0,6.0,83,0.00,,,0.00,Rainwise IP-100,2013-12-20 15:38:00,
2013-12-20 10:43:00,57.1,52.0,29.60,WNW,292,1.0,4.0,83,0.00,,,0.00,Rainwise IP-100,2013-12-20 15:43:00,
2013-12-20 10:48:00,57.2,52.0,29.60,WNW,292,4.0,6.0,84,0.00,,,0.00,Rainwise IP-100,2013-12-20 15:48:00,
2013-12-20 10:53:00,57.2,52.0,29.60,West,270,1.0,7.0,84,0.00,,,0.00,Rainwise IP-100,2013-12-20 15:53:00,
2013-12-20 10:58:00,57.5,53.0,29.60,West,270,1.0,6.0,83,0.00,,,0.00,Rainwise IP-100,2013-12-20 15:58:00,
2013-12-20 11:03:00,57.9,53.0,29.60,WSW,247,2.0,9.0,83,0.00,,,0.00,Rainwise IP-100,2013-12-20 16:03:00,
2013-12-20 11:08:00,58.5,53.0,29.59,West,270,1.0,4.0,82,0.00,,,0.00,Rainwise IP-100,2013-12-20 16:08:00,
2013-12-20 11:13:00,58.7,53.0,29.59,West,270,4.0,7.0,82,0.00,,,0.00,Rainwise IP-100,2013-12-20 16:13:00,
2013-12-20 11:18:00,58.8,54.0,29.59,SW,225,2.0,9.0,83,0.00,,,0.00,Rainwise IP-100,2013-12-20 16:18:00,
2013-12-20 11:23:00,59.1,53.0,29.59,West,270,5.0,9.0,82,0.00,,,0.00,Rainwise IP-100,2013-12-20 16:23:00,
2013-12-20 11:28:00,59.3,53.0,29.59,West,270,4.0,9.0,82,0.00,,,0.00,Rainwise IP-100,2013-12-20 16:28:00,
2013-12-20 11:33:00,59.3,53.0,29.59,WNW,292,3.0,9.0,82,0.00,,,0.00,Rainwise IP-100,2013-12-20 16:33:00,
2013-12-20 11:38:00,59.2,53.0,29.59,West,270,7.0,9.0,81,0.00,,,0.00,Rainwise IP-100,2013-12-20 16:38:00,
2013-12-20 11:43:00,59.4,53.0,29.58,West,270,3.0,10.0,80,0.00,,,0.00,Rainwise IP-100,2013-12-20 16:43:00,
2013-12-20 11:48:00,59.8,53.0,29.58,West,270,7.0,11.0,79,0.00,,,0.00,Rainwise IP-100,2013-12-20 16:48:00,
2013-12-20 11:53:00,59.9,53.0,29.58,West,270,6.0,10.0,79,0.00,,,0.00,Rainwise IP-100,2013-12-20 16:53:00,
2013-12-20 11:58:00,60.5,53.0,29.58,SW,225,4.0,8.0,77,0.00,,,0.00,Rainwise IP-100,2013-12-20 16:58:00,
2013-12-20 12:03:00,60.9,53.0,29.58,West,270,4.0,6.0,76,0.00,,,0.00,Rainwise IP-100,2013-12-20 17:03:00,
2013-12-20 12:08:00,61.1,53.0,29.58,WSW,247,2.0,8.0,75,0.00,,,0.00,Rainwise IP-100,2013-12-20 17:08:00,
2013-12-20 12:13:00,61.5,53.0,29.57,West,270,3.0,16.0,75,0.00,,,0.00,Rainwise IP-100,2013-12-20 17:13:00,
2013-12-20 12:18:00,62.1,53.0,29.57,SW,225,2.0,9.0,74,0.00,,,0.00,Rainwise IP-100,2013-12-20 17:18:00,
2013-12-20 12:23:00,62.3,53.0,29.56,West,270,2.0,9.0,73,0.00,,,0.00,Rainwise IP-100,2013-12-20 17:23:00,
2013-12-20 12:28:00,62.8,53.0,29.56,South,180,2.0,7.0,72,0.00,,,0.00,Rainwise IP-100,2013-12-20 17:28:00,
2013-12-20 12:33:00,62.9,53.0,29.56,WSW,247,4.0,11.0,71,0.00,,,0.00,Rainwise IP-100,2013-12-20 17:33:00,
2013-12-20 12:38:00,63.4,54.0,29.56,WSW,247,4.0,11.0,71,0.00,,,0.00,Rainwise IP-100,2013-12-20 17:38:00,
2013-12-20 12:43:00,63.8,53.0,29.56,West,270,2.0,12.0,70,0.00,,,0.00,Rainwise IP-100,2013-12-20 17:43:00,
2013-12-20 12:48:00,64.4,54.0,29.56,West,270,6.0,7.0,69,0.00,,,0.00,Rainwise IP-100,2013-12-20 17:48:00,
2013-12-20 12:53:00,63.8,54.0,29.56,SW,225,5.0,11.0,71,0.00,,,0.00,Rainwise IP-100,2013-12-20 17:53:00,
2013-12-20 12:58:00,63.7,54.0,29.55,WNW,292,13.0,13.0,71,0.00,,,0.00,Rainwise IP-100,2013-12-20 17:58:00,
2013-12-20 13:03:00,63.4,54.0,29.55,SW,225,6.0,14.0,71,0.00,,,0.00,Rainwise IP-100,2013-12-20 18:03:00,
2013-12-20 13:08:00,63.7,54.0,29.55,SSW,202,4.0,12.0,71,0.00,,,0.00,Rainwise IP-100,2013-12-20 18:08:00,
2013-12-20 13:13:00,63.8,54.0,29.54,South,180,6.0,11.0,71,0.00,,,0.00,Rainwise IP-100,2013-12-20 18:13:00,
2013-12-20 13:18:00,63.7,54.0,29.54,WSW,247,6.0,9.0,71,0.00,,,0.00,Rainwise IP-100,2013-12-20 18:18:00,
2013-12-20 13:23:00,64.0,53.0,29.54,WSW,247,3.0,9.0,69,0.00,,,0.00,Rainwise IP-100,2013-12-20 18:23:00,
2013-12-20 13:28:00,64.2,53.0,29.53,WSW,247,4.0,9.0,69,0.00,,,0.00,Rainwise IP-100,2013-12-20 18:28:00,
2013-12-20 13:33:00,64.6,53.0,29.53,SW,225,5.0,10.0,65,0.00,,,0.00,Rainwise IP-100,2013-12-20 18:33:00,
2013-12-20 13:38:00,64.9,52.0,29.53,West,270,7.0,12.0,63,0.00,,,0.00,Rainwise IP-100,2013-12-20 18:38:00,
2013-12-20 13:43:00,64.9,51.0,29.53,WSW,247,7.0,11.0,62,0.00,,,0.00,Rainwise IP-100,2013-12-20 18:43:00,
2013-12-20 13:48:00,64.9,51.0,29.52,WSW,247,5.0,13.0,62,0.00,,,0.00,Rainwise IP-100,2013-12-20 18:48:00,
2013-12-20 13:53:00,65.1,51.0,29.52,WNW,292,6.0,10.0,62,0.00,,,0.00,Rainwise IP-100,2013-12-20 18:53:00,
2013-12-20 13:58:00,65.1,51.0,29.52,SW,225,8.0,11.0,62,0.00,,,0.00,Rainwise IP-100,2013-12-20 18:58:00,
2013-12-20 14:03:00,65.1,51.0,29.52,WSW,247,3.0,10.0,61,0.00,,,0.00,Rainwise IP-100,2013-12-20 19:03:00,
2013-12-20 14:08:00,65.3,51.0,29.52,West,270,1.0,9.0,61,0.00,,,0.00,Rainwise IP-100,2013-12-20 19:08:00,
2013-12-20 14:13:00,65.1,51.0,29.52,West,270,4.0,10.0,62,0.00,,,0.00,Rainwise IP-100,2013-12-20 19:13:00,
2013-12-20 14:18:00,65.3,51.0,29.52,WNW,292,2.0,7.0,62,0.00,,,0.00,Rainwise IP-100,2013-12-20 19:18:00,
2013-12-20 14:23:00,65.2,51.0,29.52,West,270,1.0,8.0,62,0.00,,,0.00,Rainwise IP-100,2013-12-20 19:23:00,
2013-12-20 14:28:00,65.4,52.0,29.52,WSW,247,2.0,6.0,62,0.00,,,0.00,Rainwise IP-100,2013-12-20 19:28:00,
2013-12-20 14:33:00,65.7,52.0,29.52,West,270,1.0,9.0,62,0.00,,,0.00,Rainwise IP-100,2013-12-20 19:33:00,
2013-12-20 14:38:00,65.7,51.0,29.52,WSW,247,4.0,13.0,61,0.00,,,0.00,Rainwise IP-100,2013-12-20 19:38:00,
2013-12-20 14:43:00,65.8,51.0,29.52,SW,225,6.0,11.0,60,0.00,,,0.00,Rainwise IP-100,2013-12-20 19:43:00,
2013-12-20 14:48:00,65.9,51.0,29.52,SW,225,9.0,11.0,60,0.00,,,0.00,Rainwise IP-100,2013-12-20 19:48:00,
2013-12-20 14:53:00,65.7,51.0,29.52,WSW,247,2.0,12.0,60,0.00,,,0.00,Rainwise IP-100,2013-12-20 19:53:00,
2013-12-20 14:58:00,65.6,51.0,29.52,SW,225,2.0,7.0,60,0.00,,,0.00,Rainwise IP-100,2013-12-20 19:58:00,
2013-12-20 15:03:00,65.1,50.0,29.52,SW,225,9.0,11.0,59,0.00,,,0.00,Rainwise IP-100,2013-12-20 20:03:00,
2013-12-20 15:08:00,65.0,50.0,29.52,SW,225,5.0,14.0,60,0.00,,,0.00,Rainwise IP-100,2013-12-20 20:08:00,
2013-12-20 15:13:00,64.9,51.0,29.52,SW,225,2.0,9.0,61,0.00,,,0.00,Rainwise IP-100,2013-12-20 20:13:00,
2013-12-20 15:18:00,64.7,50.0,29.52,WSW,247,1.0,7.0,61,0.00,,,0.00,Rainwise IP-100,2013-12-20 20:18:00,
2013-12-20 15:23:00,64.7,51.0,29.52,SW,225,3.0,9.0,62,0.00,,,0.00,Rainwise IP-100,2013-12-20 20:23:00,
2013-12-20 15:28:00,64.6,51.0,29.52,West,270,5.0,9.0,63,0.00,,,0.00,Rainwise IP-100,2013-12-20 20:28:00,
2013-12-20 15:33:00,64.4,52.0,29.53,West,270,2.0,7.0,64,0.00,,,0.00,Rainwise IP-100,2013-12-20 20:33:00,
2013-12-20 15:38:00,64.4,53.0,29.53,SSW,202,2.0,6.0,65,0.00,,,0.00,Rainwise IP-100,2013-12-20 20:38:00,
2013-12-20 15:43:00,64.4,53.0,29.53,WSW,247,1.0,4.0,65,0.00,,,0.00,Rainwise IP-100,2013-12-20 20:43:00,
2013-12-20 15:48:00,64.3,52.0,29.53,SW,225,2.0,4.0,65,0.00,,,0.00,Rainwise IP-100,2013-12-20 20:48:00,
2013-12-20 15:53:00,64.3,53.0,29.53,WSW,247,2.0,4.0,66,0.00,,,0.00,Rainwise IP-100,2013-12-20 20:53:00,
2013-12-20 15:58:00,64.2,53.0,29.53,SW,225,1.0,6.0,66,0.00,,,0.00,Rainwise IP-100,2013-12-20 20:58:00,
2013-12-20 16:00:00,64.1,53.0,29.53,SW,225,2.0,5.0,66,0.00,,,0.00,Rainwise IP-100,2013-12-20 21:00:00,
2013-12-20 16:05:00,63.9,53.0,29.53,SW,225,2.0,7.0,67,0.00,,,0.00,Rainwise IP-100,2013-12-20 21:05:00,
2013-12-20 16:10:00,63.9,53.0,29.53,SW,225,4.0,7.0,67,0.00,,,0.00,Rainwise IP-100,2013-12-20 21:10:00,
2013-12-20 16:15:00,63.9,53.0,29.53,SW,225,2.0,6.0,67,0.00,,,0.00,Rainwise IP-100,2013-12-20 21:15:00,
2013-12-20 16:20:00,63.8,53.0,29.53,SW,225,5.0,7.0,68,0.00,,,0.00,Rainwise IP-100,2013-12-20 21:20:00,
2013-12-20 16:25:00,63.7,53.0,29.53,West,270,2.0,9.0,68,0.00,,,0.00,Rainwise IP-100,2013-12-20 21:25:00,
2013-12-20 16:30:00,63.7,53.0,29.53,SW,225,2.0,7.0,68,0.00,,,0.00,Rainwise IP-100,2013-12-20 21:30:00,
2013-12-20 16:35:00,63.6,53.0,29.53,WSW,247,2.0,6.0,68,0.00,,,0.00,Rainwise IP-100,2013-12-20 21:35:00,
2013-12-20 16:40:00,63.6,53.0,29.53,SSW,202,5.0,5.0,68,0.00,,,0.00,Rainwise IP-100,2013-12-20 21:40:00,
2013-12-20 16:45:00,63.4,53.0,29.53,SW,225,2.0,6.0,69,0.00,,,0.00,Rainwise IP-100,2013-12-20 21:45:00,
2013-12-20 16:50:00,63.3,53.0,29.53,SW,225,2.0,5.0,69,0.00,,,0.00,Rainwise IP-100,2013-12-20 21:50:00,
2013-12-20 16:55:00,63.2,53.0,29.53,SW,225,1.0,4.0,69,0.00,,,0.00,Rainwise IP-100,2013-12-20 21:55:00,
2013-12-20 17:00:00,63.1,53.0,29.53,WSW,247,1.0,4.0,69,0.00,,,0.00,Rainwise IP-100,2013-12-20 22:00:00,
2013-12-20 17:05:00,63.0,53.0,29.53,WSW,247,2.0,4.0,70,0.00,,,0.00,Rainwise IP-100,2013-12-20 22:05:00,
2013-12-20 17:10:00,62.9,53.0,29.53,SW,225,2.0,2.0,70,0.00,,,0.00,Rainwise IP-100,2013-12-20 22:10:00,
2013-12-20 17:15:00,62.7,53.0,29.53,SW,225,2.0,2.0,71,0.00,,,0.00,Rainwise IP-100,2013-12-20 22:15:00,
2013-12-20 17:20:00,62.6,53.0,29.53,SW,225,1.0,3.0,71,0.00,,,0.00,Rainwise IP-100,2013-12-20 22:20:00,
2013-12-20 17:25:00,62.5,53.0,29.53,SW,225,1.0,3.0,71,0.00,,,0.00,Rainwise IP-100,2013-12-20 22:25:00,
2013-12-20 17:30:00,62.4,53.0,29.53,SW,225,2.0,3.0,72,0.00,,,0.00,Rainwise IP-100,2013-12-20 22:30:00,
2013-12-20 17:35:00,62.2,53.0,29.53,South,180,1.0,2.0,72,0.00,,,0.00,Rainwise IP-100,2013-12-20 22:35:00,
2013-12-20 17:40:00,62.1,53.0,29.53,SSW,202,2.0,3.0,72,0.00,,,0.00,Rainwise IP-100,2013-12-20 22:40:00,
2013-12-20 17:45:00,61.9,53.0,29.53,SW,225,1.0,2.0,73,0.00,,,0.00,Rainwise IP-100,2013-12-20 22:45:00,
2013-12-20 17:50:00,61.9,53.0,29.53,SW,225,1.0,3.0,73,0.00,,,0.00,Rainwise IP-100,2013-12-20 22:50:00,
2013-12-20 17:55:00,61.9,53.0,29.53,SSW,202,1.0,2.0,73,0.00,,,0.00,Rainwise IP-100,2013-12-20 22:55:00,
2013-12-20 18:00:00,61.7,53.0,29.52,South,180,1.0,2.0,74,0.00,,,0.00,Rainwise IP-100,2013-12-20 23:00:00,
2013-12-20 18:05:00,61.5,53.0,29.52,South,180,0.0,2.0,74,0.00,,,0.00,Rainwise IP-100,2013-12-20 23:05:00,
2013-12-20 18:10:00,61.5,53.0,29.52,SW,225,2.0,2.0,74,0.00,,,0.00,Rainwise IP-100,2013-12-20 23:10:00,
2013-12-20 18:15:00,61.3,53.0,29.53,WSW,247,1.0,2.0,75,0.00,,,0.00,Rainwise IP-100,2013-12-20 23:15:00,
2013-12-20 18:20:00,61.1,53.0,29.53,South,180,1.0,2.0,75,0.00,,,0.00,Rainwise IP-100,2013-12-20 23:20:00,
2013-12-20 18:25:00,60.9,53.0,29.53,South,180,0.0,2.0,75,0.00,,,0.00,Rainwise IP-100,2013-12-20 23:25:00,
2013-12-20 18:30:00,60.6,53.0,29.53,South,180,1.0,2.0,76,0.00,,,0.00,Rainwise IP-100,2013-12-20 23:30:00,
2013-12-20 18:35:00,60.1,53.0,29.52,South,180,0.0,2.0,77,0.00,,,0.00,Rainwise IP-100,2013-12-20 23:35:00,
2013-12-20 18:40:00,59.9,53.0,29.53,South,180,0.0,2.0,77,0.00,,,0.00,Rainwise IP-100,2013-12-20 23:40:00,
2013-12-20 18:45:00,59.4,53.0,29.52,SE,135,2.0,2.0,79,0.00,,,0.00,Rainwise IP-100,2013-12-20 23:45:00,
2013-12-20 18:50:00,58.9,53.0,29.52,SE,135,1.0,2.0,80,0.00,,,0.00,Rainwise IP-100,2013-12-20 23:50:00,
2013-12-20 18:55:00,58.4,53.0,29.52,SE,135,0.0,2.0,81,0.00,,,0.00,Rainwise IP-100,2013-12-20 23:55:00,
2013-12-20 19:00:00,57.7,53.0,29.52,SE,135,2.0,2.0,83,0.00,,,0.00,Rainwise IP-100,2013-12-21 00:00:00,
2013-12-20 19:05:00,57.3,52.0,29.52,SE,135,0.0,2.0,84,0.00,,,0.00,Rainwise IP-100,2013-12-21 00:05:00,
2013-12-20 19:10:00,56.8,52.0,29.52,SE,135,0.0,0.0,85,0.00,,,0.00,Rainwise IP-100,2013-12-21 00:10:00,
2013-12-20 19:15:00,56.4,52.0,29.52,SE,135,0.0,0.0,85,0.00,,,0.00,Rainwise IP-100,2013-12-21 00:15:00,
2013-12-20 19:20:00,55.9,52.0,29.51,SE,135,0.0,0.0,86,0.00,,,0.00,Rainwise IP-100,2013-12-21 00:20:00,
2013-12-20 19:25:00,55.6,52.0,29.52,SE,135,0.0,0.0,87,0.00,,,0.00,Rainwise IP-100,2013-12-21 00:25:00,
2013-12-20 19:30:00,55.2,52.0,29.52,SE,135,0.0,0.0,88,0.00,,,0.00,Rainwise IP-100,2013-12-21 00:30:00,
2013-12-20 19:35:00,54.9,53.0,29.52,SE,135,0.0,1.0,90,0.00,,,0.00,Rainwise IP-100,2013-12-21 00:35:00,
2013-12-20 19:40:00,54.6,52.0,29.51,SE,135,0.0,0.0,91,0.00,,,0.00,Rainwise IP-100,2013-12-21 00:40:00,
2013-12-20 19:45:00,54.3,51.0,29.51,SE,135,0.0,0.0,91,0.00,,,0.00,Rainwise IP-100,2013-12-21 00:45:00,
2013-12-20 19:50:00,54.0,51.0,29.51,SE,135,0.0,0.0,91,0.00,,,0.00,Rainwise IP-100,2013-12-21 00:50:00,
2013-12-20 19:55:00,53.6,50.0,29.52,SE,135,0.0,0.0,91,0.00,,,0.00,Rainwise IP-100,2013-12-21 00:55:00,
2013-12-20 20:00:00,53.1,50.0,29.52,SE,135,0.0,0.0,91,0.00,,,0.00,Rainwise IP-100,2013-12-21 01:00:00,
2013-12-20 20:05:00,52.8,50.0,29.52,SE,135,0.0,0.0,92,0.00,,,0.00,Rainwise IP-100,2013-12-21 01:05:00,
2013-12-20 20:10:00,52.5,51.0,29.51,SE,135,1.0,2.0,95,0.00,,,0.00,Rainwise IP-100,2013-12-21 01:10:00,
2013-12-20 20:15:00,52.2,50.0,29.51,SE,135,0.0,2.0,95,0.00,,,0.00,Rainwise IP-100,2013-12-21 01:15:00,
2013-12-20 20:20:00,52.1,51.0,29.51,SE,135,0.0,1.0,97,0.00,,,0.00,Rainwise IP-100,2013-12-21 01:20:00,
2013-12-20 20:25:00,51.9,51.0,29.51,SE,135,0.0,0.0,97,0.00,,,0.00,Rainwise IP-100,2013-12-21 01:25:00,
2013-12-20 20:30:00,51.6,51.0,29.51,SE,135,0.0,0.0,97,0.00,,,0.00,Rainwise IP-100,2013-12-21 01:30:00,
2013-12-20 20:35:00,51.3,50.0,29.52,SE,135,0.0,0.0,97,0.00,,,0.00,Rainwise IP-100,2013-12-21 01:35:00,
2013-12-20 20:40:00,51.1,50.0,29.52,SE,135,0.0,0.0,97,0.00,,,0.00,Rainwise IP-100,2013-12-21 01:40:00,
2013-12-20 20:45:00,51.1,50.0,29.52,SE,135,2.0,2.0,97,0.00,,,0.00,Rainwise IP-100,2013-12-21 01:45:00,
2013-12-20 20:50:00,50.8,50.0,29.52,SE,135,0.0,2.0,97,0.00,,,0.00,Rainwise IP-100,2013-12-21 01:50:00,
2013-12-20 20:55:00,50.7,50.0,29.52,SE,135,0.0,0.0,97,0.00,,,0.00,Rainwise IP-100,2013-12-21 01:55:00,
2013-12-20 21:00:00,50.5,50.0,29.52,SE,135,0.0,0.0,97,0.00,,,0.00,Rainwise IP-100,2013-12-21 02:00:00,
2013-12-20 21:05:00,50.3,49.0,29.52,SE,135,0.0,0.0,97,0.00,,,0.00,Rainwise IP-100,2013-12-21 02:05:00,
2013-12-20 21:10:00,50.2,49.0,29.52,SE,135,0.0,0.0,97,0.00,,,0.00,Rainwise IP-100,2013-12-21 02:10:00,
2013-12-20 21:15:00,50.0,49.0,29.52,SE,135,0.0,0.0,97,0.00,,,0.00,Rainwise IP-100,2013-12-21 02:15:00,
2013-12-20 21:20:00,49.9,49.0,29.52,SE,135,0.0,0.0,97,0.00,,,0.00,Rainwise IP-100,2013-12-21 02:20:00,
2013-12-20 21:25:00,49.8,49.0,29.52,SE,135,0.0,0.0,97,0.00,,,0.00,Rainwise IP-100,2013-12-21 02:25:00,
2013-12-20 21:30:00,49.7,49.0,29.52,SE,135,0.0,0.0,97,0.00,,,0.00,Rainwise IP-100,2013-12-21 02:30:00,
2013-12-20 21:35:00,49.5,49.0,29.52,SE,135,0.0,0.0,97,0.00,,,0.00,Rainwise IP-100,2013-12-21 02:35:00,
2013-12-20 21:40:00,49.2,48.0,29.52,SE,135,0.0,0.0,97,0.00,,,0.00,Rainwise IP-100,2013-12-21 02:40:00,
2013-12-20 21:45:00,49.1,48.0,29.52,SE,135,0.0,0.0,97,0.00,,,0.00,Rainwise IP-100,2013-12-21 02:45:00,
2013-12-20 21:50:00,49.1,48.0,29.52,SE,135,0.0,0.0,97,0.00,,,0.00,Rainwise IP-100,2013-12-21 02:50:00,
2013-12-20 21:55:00,49.3,48.0,29.52,SE,135,1.0,0.0,97,0.00,,,0.00,Rainwise IP-100,2013-12-21 02:55:00,
2013-12-20 22:00:00,49.4,48.0,29.52,ESE,112,0.0,1.0,97,0.00,,,0.00,Rainwise IP-100,2013-12-21 03:00:00,
2013-12-20 22:05:00,49.3,48.0,29.52,ESE,112,1.0,1.0,97,0.00,,,0.00,Rainwise IP-100,2013-12-21 03:05:00,
2013-12-20 22:10:00,49.4,48.0,29.52,ESE,112,0.0,2.0,97,0.00,,,0.00,Rainwise IP-100,2013-12-21 03:10:00,
2013-12-20 22:15:00,49.5,49.0,29.52,ESE,112,0.0,1.0,97,0.00,,,0.00,Rainwise IP-100,2013-12-21 03:15:00,
2013-12-20 22:20:00,49.6,49.0,29.52,ESE,112,0.0,0.0,97,0.00,,,0.00,Rainwise IP-100,2013-12-21 03:20:00,
2013-12-20 22:25:00,49.5,49.0,29.52,ESE,112,0.0,0.0,97,0.00,,,0.00,Rainwise IP-100,2013-12-21 03:25:00,
2013-12-20 22:30:00,49.3,48.0,29.52,NE,45,0.0,0.0,97,0.00,,,0.00,Rainwise IP-100,2013-12-21 03:30:00,
2013-12-20 22:35:00,49.2,48.0,29.52,NE,45,0.0,0.0,97,0.00,,,0.00,Rainwise IP-100,2013-12-21 03:35:00,
2013-12-20 22:40:00,49.1,48.0,29.52,NE,45,0.0,1.0,97,0.00,,,0.00,Rainwise IP-100,2013-12-21 03:40:00,
2013-12-20 22:45:00,49.2,48.0,29.51,NE,45,0.0,2.0,97,0.00,,,0.00,Rainwise IP-100,2013-12-21 03:45:00,
2013-12-20 22:50:00,49.0,48.0,29.51,NE,45,0.0,0.0,97,0.00,,,0.00,Rainwise IP-100,2013-12-21 03:50:00,
2013-12-20 22:55:00,48.8,48.0,29.50,NE,45,0.0,1.0,97,0.00,,,0.00,Rainwise IP-100,2013-12-21 03:55:00,
2013-12-20 23:00:00,48.6,48.0,29.51,NE,45,0.0,0.0,97,0.00,,,0.00,Rainwise IP-100,2013-12-21 04:00:00,
2013-12-20 23:05:00,48.4,47.0,29.51,NE,45,0.0,0.0,97,0.00,,,0.00,Rainwise IP-100,2013-12-21 04:05:00,
2013-12-20 23:10:00,48.2,47.0,29.50,NW,315,0.0,0.0,97,0.00,,,0.00,Rainwise IP-100,2013-12-21 04:10:00,
2013-12-20 23:15:00,48.1,47.0,29.51,NW,315,0.0,0.0,97,0.00,,,0.00,Rainwise IP-100,2013-12-21 04:15:00,
2013-12-20 23:20:00,48.1,47.0,29.50,NW,315,0.0,0.0,97,0.00,,,0.00,Rainwise IP-100,2013-12-21 04:20:00,
2013-12-20 23:25:00,48.1,47.0,29.49,NW,315,0.0,0.0,97,0.00,,,0.00,Rainwise IP-100,2013-12-21 04:25:00,
2013-12-20 23:30:00,48.0,47.0,29.49,NW,315,0.0,1.0,97,0.00,,,0.00,Rainwise IP-100,2013-12-21 04:30:00,
2013-12-20 23:35:00,47.9,47.0,29.49,NW,315,0.0,0.0,97,0.00,,,0.00,Rainwise IP-100,2013-12-21 04:35:00,
2013-12-20 23:40:00,47.7,47.0,29.49,NW,315,0.0,0.0,97,0.00,,,0.00,Rainwise IP-100,2013-12-21 04:40:00,
2013-12-20 23:45:00,47.6,47.0,29.49,NW,315,0.0,0.0,97,0.00,,,0.00,Rainwise IP-100,2013-12-21 04:45:00,
2013-12-20 23:50:00,47.5,47.0,29.49,NW,315,0.0,2.0,97,0.00,,,0.00,Rainwise IP-100,2013-12-21 04:50:00,
2013-12-20 23:55:00,47.3,46.0,29.49,NW,315,0.0,1.0,97,0.00,,,0.00,Rainwise IP-100,2013-12-21 04:55:00,